Location: Red Bud (historical)
(37.7759°N, 88.4053°W)
Time: 22:15:28
(UTC+00:00)

GPS 2-04 Rocket1 - Pass Details

Date: 29 October 2020
Orbit: 418 x 546 km, 35.6° (Epoch: 27 November)

Event Time Altitude Azimuth Distance (km) Brightness Sun altitude
Rises 23:29:42 0° 237° (WSW) 2,584 7.8 -7.0°
Reaches altitude 10° 23:31:59 10° 228° (SW) 1,724 6.4 -7.4°
Maximum altitude 23:35:38 36° 161° (SSE) 846 3.7 -8.1°
Enters shadow 23:39:19 11° 95° (E) 1,747 4.8 -8.8°
